Location: *
(43.0167°S, 179.9000°E)
Time: 20:26:06
(UTC+00:00)

USA 267 - Pass Details

Date: 12 August 2024
Orbit: 1099 x 1109 km, 123.0° (Epoch: 17 September)

Event Time Altitude Azimuth Distance (km) Brightness Sun altitude
Rises 17:12:34 0° 76° (ENE) 3,925 7.7 -19.5°
Reaches altitude 10° 17:15:08 10° 81° (E) 2,970 6.8 -19.1°
Maximum altitude 17:21:21 48° 152° (SSE) 1,427 4.0 -17.9°
Enters shadow 17:27:07 12° 222° (SW) 2,812 5.0 -16.9°
